Tracking 19903 objects as of 16-Oct-2019
HD Live streaming from Space Station
objects crossing your sky now

COSMOS 1275 DEB

Track COSMOS 1275 DEB now!
10-day predictions


NORAD ID: 12657
Int'l Code: 1981-053M
Perigee: 433.1 km
Apogee: 443.1 km
Inclination: 82.7 °
Period: 93.2 minutes
Semi major axis: 6809 km
RCS: 0.0564 m2 (small)
Launch date: June 4, 1981
Source: Commonwealth of Independent States (former USSR) (CIS)
Launch site: PLESETSK MISSILE AND SPACE COMPLEX (PKMTR)

Note: This is SATELLITE DEBRIS
aabbcc
Your satellite tracking list
Your tracking list is empty




NASA's NSSDC Master Catalog

Two Line Element Set (TLE):
1 12657U 81053M   19288.89831686 +.00029455 +00000-0 +61915-3 0  9995
2 12657 082.7148 141.3350 0007354 124.9388 235.2553 15.45147711009655
Source of the keplerian elements: AFSPC